Weather History for Provo, UT

Change the Weather History Date:

Friday, December 2, 2011

  Actual Average Record
Temperature  
Mean Temperature 27 °F -  
Max Temperature 35 °F 39 °F 60 °F (1998)
Min Temperature 19 °F 24 °F 14 °F (2007)
Degree Days  
Heating Degree Days 38    
Moisture  
Dew Point 19 °F    
Average Humidity 68    
Maximum Humidity 93    
Minimum Humidity 48    
Precipitation  
Precipitation 0.00 in - - ()
Sea Level Pressure  
Sea Level Pressure 30.03 in    
Wind  
Wind Speed 8 mph (NNW)    
Max Wind Speed 17 mph    
Max Gust Speed 22 mph    
Visibility 11 miles    
Events      
Averages and records for this station are not official NWS values.
T = Trace of Precipitation, MM = Missing Value Source: NWS Daily Summary

Daily Weather History Graph

Daily Weather History Graph

Search for Another Location

Airport:

Trip Planner

Search our weather history database for the weather conditions in past years. The results will help you decide how hot, cold, wet, or windy it might be!

Date:

Astronomy

Dec. 02, 2011 Rise Set
Actual Time 7:30 AM MST 5:01 PM MST
Civil Twilight 7:00 AM MST 5:31 PM MST
Nautical Twilight 6:27 AM MST 6:05 PM MST
Astronomical Twilight 5:54 AM MST 6:38 PM MST
Moon 12:42 PM MST (12/2) 12:04 AM MST (12/2)
Length of Visible Light 10h 30m
Length of Day
9h 30m
First Quarter, 54% of the Moon is Illuminated
Dec 2
First Quarter
Dec 10
Full
Dec 17
Last Quarter
Dec 24
New
Dec 31
First Quarter

Hourly Weather History & Observations

Time (MST) Temp. Windchill Dew Point Humidity Pressure Visibility Wind Dir Wind Speed Gust Speed Precip Events Conditions
12:15 AM 32.0 °F 24.2 °F 14.0 °F 48% 30.16 in 10.0 mi NNW 9.2 mph - N/A   Clear
12:35 AM 30.2 °F 21.3 °F 15.8 °F 55% 30.16 in 10.0 mi North 10.4 mph - N/A   Clear
12:55 AM 28.4 °F 20.4 °F 15.8 °F 59% 30.16 in 10.0 mi NW 8.1 mph - N/A   Clear
1:15 AM 28.4 °F 18.5 °F 17.6 °F 64% 30.14 in 10.0 mi NW 11.5 mph - N/A   Clear
1:35 AM 30.2 °F 21.3 °F 17.6 °F 60% 30.14 in 10.0 mi NNW 10.4 mph - N/A   Clear
1:55 AM 30.2 °F 21.9 °F 17.6 °F 60% 30.14 in 10.0 mi NNW 9.2 mph - N/A   Clear
2:15 AM 28.4 °F 21.2 °F 14.0 °F 55% 30.13 in 10.0 mi North 6.9 mph - N/A   Clear
2:35 AM 26.6 °F 19.1 °F 12.2 °F 55% 30.12 in 10.0 mi NNW 6.9 mph - N/A   Clear
2:55 AM 24.8 °F 20.5 °F 14.0 °F 64% 30.12 in 10.0 mi WNW 3.5 mph - N/A   Clear
3:15 AM 24.8 °F 16.9 °F 14.0 °F 64% 30.11 in 10.0 mi NNW 6.9 mph - N/A   Clear
3:35 AM 26.6 °F 15.7 °F 15.8 °F 64% 30.11 in 10.0 mi NNW 12.7 mph - N/A   Clear
4:15 AM 28.4 °F 19.1 °F 15.8 °F 59% 30.09 in 10.0 mi North 10.4 mph 17.3 mph N/A   Clear
4:35 AM 28.4 °F 18.0 °F 14.0 °F 55% 30.08 in 10.0 mi North 12.7 mph - N/A   Clear
4:55 AM 28.4 °F 19.7 °F 15.8 °F 59% 30.08 in 10.0 mi NNE 9.2 mph - N/A   Clear
5:15 AM 24.8 °F 20.5 °F 15.8 °F 69% 30.07 in 10.0 mi NE 3.5 mph - N/A   Clear
5:35 AM 24.8 °F 20.5 °F 15.8 °F 69% 30.07 in 10.0 mi North 3.5 mph - N/A   Clear
5:55 AM 26.6 °F - 17.6 °F 69% 30.06 in 10.0 mi Calm Calm - N/A   Clear
6:15 AM 23.0 °F - 12.2 °F 63% 30.06 in 10.0 mi Calm Calm - N/A   Clear
6:35 AM 19.4 °F 11.5 °F 15.8 °F 86% 30.05 in 10.0 mi East 5.8 mph - N/A   Clear
6:48 AM 21.2 °F 16.4 °F 19.4 °F 93% 30.04 in 10.0 mi East 3.5 mph - N/A   Partly Cloudy
7:47 AM 21.2 °F - 17.6 °F 86% 30.03 in 15.0 mi Calm Calm - N/A   Partly Cloudy
8:48 AM 28.4 °F - 21.2 °F 74% 30.03 in 15.0 mi Calm Calm - N/A   Partly Cloudy
9:47 AM 30.2 °F 25.4 °F 21.2 °F 69% 30.02 in 15.0 mi Variable 4.6 mph - N/A   Partly Cloudy
10:50 AM 32.0 °F - 19.4 °F 60% 30.00 in 15.0 mi Calm Calm - N/A   Scattered Clouds
11:47 AM 33.8 °F - 19.4 °F 56% 29.97 in 15.0 mi Calm Calm - N/A   Mostly Cloudy
12:59 PM 33.8 °F - 19.4 °F 56% 29.93 in 15.0 mi Calm Calm - N/A   Mostly Cloudy
3:50 PM 35.6 °F 30.7 °F 17.6 °F 48% 29.87 in 15.0 mi Variable 5.8 mph - N/A   Overcast
6:50 PM 33.8 °F 23.5 °F 23.0 °F 65% 29.90 in 15.0 mi WNW 16.1 mph - N/A   Overcast
7:50 PM 30.2 °F 18.5 °F 23.0 °F 75% 29.92 in 15.0 mi WNW 17.3 mph - N/A   Overcast
8:50 PM 28.4 °F 16.2 °F 24.8 °F 86% 29.92 in 15.0 mi WNW 17.3 mph - N/A   Overcast
9:15 PM 30.2 °F 19.3 °F 24.8 °F 80% 29.92 in 10.0 mi NW 15.0 mph - N/A   Overcast
9:35 PM 30.2 °F 20.2 °F 24.8 °F 80% 29.92 in 10.0 mi NNW 12.7 mph 19.6 mph N/A   Overcast
9:55 PM 30.2 °F 20.8 °F 24.8 °F 80% 29.93 in 10.0 mi North 11.5 mph 17.3 mph N/A   Mostly Cloudy
10:15 PM 28.4 °F 17.5 °F 24.8 °F 86% 29.94 in 10.0 mi NNW 13.8 mph - N/A   Mostly Cloudy
10:35 PM 30.2 °F 20.2 °F 24.8 °F 80% 29.94 in 10.0 mi NNW 12.7 mph - N/A   Overcast
10:55 PM 30.2 °F 21.9 °F 24.8 °F 80% 29.94 in 10.0 mi NNW 9.2 mph - N/A   Mostly Cloudy
11:15 PM 28.4 °F 17.5 °F 24.8 °F 86% 29.94 in 10.0 mi NW 13.8 mph - N/A   Mostly Cloudy
11:55 PM 28.4 °F 17.5 °F 24.8 °F 86% 29.94 in 10.0 mi WNW 13.8 mph 21.9 mph N/A   Overcast